Home   Weather   Nürburg   Past weeks
Flag for Germany

Past Weather in Nürburg, Rhineland-Palatinate, Germany — Yesterday and Last 2 Weeks

Now
49 °F

Passing clouds.


Feels Like: 48 °F
Forecast: 53 / 46 °F
Wind: 3 mph from Southwest

Location: Nuerburg-Barweiler

Current Time: Oct 18, 2019 at 8:57:45 pm

Latest Report: Oct 18, 2019 at 7:00 pm


Visibility: N/A

Pressure: 29.84 "Hg (27.74 "Hg at 601m altitude)

Humidity: 78%

Dew Point: 42 °F

Location of NürburgLocation

Past Weather in Nürburg — Graph

°F

Nürburg Temperature Yesterday

Maximum temperature yesterday: 55 °F (at 3:00 pm)
Minimum temperature yesterday: 52 °F (at 1:00 am)
Average temperature yesterday: 53 °F

High & Low Weather Summary for the Past Weeks

 TemperatureHumidityPressure
High70 °F (Oct 13, 4:00 pm)100% (Oct 6, 9:00 pm)30.10 "Hg (Oct 6, 9:00 pm)
Low43 °F (Oct 6, 9:00 am)57% (Oct 14, 6:00 pm)29.65 "Hg (Oct 4, 4:00 pm)
Average52 °F87%29.88 "Hg
* Reported Oct 3 7:00 pm — Oct 18 7:00 pm, Nürburg. Weather by CustomWeather, © 2019

Note: Actual official high and low records may vary slightly from our data, if they occured in-between our weather recording intervals... More about our weather records

Advertising

Nürburg Weather History for the Previous 24 Hours

Scroll right to see more
 ConditionsComfort  
Time TempWeatherWind HumidityBarometerVisibility
7:00 pm
Fri, Oct 18
49 °FPassing clouds.3 mph78%29.84 "HgN/A
6:00 pm51 °FSunny.5 mph70%29.81 "HgN/A
4:00 pm53 °FPartly sunny.7 mph70%29.78 "HgN/A
3:00 pm51 °FPartly sunny.7 mph76%29.78 "HgN/A
1:00 pm48 °FLight rain. Low clouds.9 mph90%29.79 "Hg4 mi
12:00 pm55 °FOvercast.8 mph80%29.73 "Hg37 mi
10:00 am54 °FOvercast.6 mph85%29.75 "HgN/A
9:00 am54 °FOvercast.7 mph88%29.76 "Hg40 mi
7:00 am54 °FOvercast.6 mph89%29.78 "Hg43 mi
6:00 am53 °FLow clouds.5 mph94%29.79 "Hg28 mi
4:00 am53 °FOvercast.5 mph94%29.83 "Hg25 mi
3:00 am51 °FOvercast.3 mph94%29.85 "Hg25 mi
1:00 am52 °FPassing clouds.3 mph91%29.87 "Hg43 mi
12:00 am53 °FPassing clouds.5 mph90%29.86 "Hg43 mi
10:00 pm
Thu, Oct 17
54 °FOvercast.3 mph95%29.86 "Hg10 mi
9:00 pm53 °FDrizzle. Low clouds.3 mph98%29.86 "Hg5 mi
Weather by CustomWeather, © 2019

See weather overview